• Em Portugal
  • Lista de países
  • Para 7 dias
  • Temperatura da água
  • Mapas de satélite
  • Mapa do tempo
  • Widgets de tempo
  • user-avatar
    Iniciar Sessão

    Previsão horária em Kandahar

    Hoje, 21 Outubro, Domingo

    Tempo Temperatura Precipitação Vento Pressão Humidade
    00:00 +13°C° 0 mm 0 m/s 677 mmHg 18%
    01:00 +13°C° 0 mm 0 m/s 677 mmHg 19%
    02:00 +12°C° 0 mm 0 m/s 677 mmHg 19%
    03:00 +12°C° 0 mm 0 m/s 677 mmHg 20%
    04:00 +12°C° 0 mm 0 m/s 677 mmHg 20%
    05:00 +13°C° 0 mm 0 m/s 677 mmHg 19%
    06:00 +14°C° 0 mm 0 m/s 678 mmHg 17%
    07:00 +15°C° 0 mm 0 m/s 678 mmHg 16%
    08:00 +19°C° 0 mm 1 m/s 679 mmHg 14%
    09:00 +21°C° 0 mm 1 m/s 679 mmHg 12%
    10:00 +23°C° 0 mm 1 m/s 680 mmHg 11%
    11:00 +24°C° 0 mm 2 m/s 680 mmHg 10%
    12:00 +25°C° 0 mm 2 m/s 680 mmHg 9%
    13:00 +26°C° 0 mm 2 m/s 679 mmHg 9%
    14:00 +26°C° 0 mm 2 m/s 679 mmHg 9%
    15:00 +26°C° 0 mm 3 m/s 679 mmHg 9%
    16:00 +26°C° 0 mm 3 m/s 679 mmHg 9%
    17:00 +24°C° 0 mm 3 m/s 679 mmHg 10%
    18:00 +21°C° 0 mm 2 m/s 678 mmHg 11%
    19:00 +20°C° 0 mm 1 m/s 678 mmHg 13%
    20:00 +20°C° 0 mm 1 m/s 678 mmHg 13%
    21:00 +19°C° 0 mm 1 m/s 678 mmHg 14%
    22:00 +18°C° 0 mm 1 m/s 678 mmHg 15%
    23:00 +18°C° 0 mm 1 m/s 677 mmHg 15%

    Amanhã, 22 Outubro, Segunda-feira

    Tempo Temperatura Precipitação Vento Pressão Humidade
    00:00 +18°C° 0 mm 1 m/s 677 mmHg 16%
    01:00 +15°C° 0 mm 0 m/s 677 mmHg 16%
    02:00 +16°C° 0 mm 1 m/s 677 mmHg 17%
    03:00 +16°C° 0 mm 1 m/s 677 mmHg 17%
    04:00 +15°C° 0 mm 1 m/s 677 mmHg 18%
    05:00 +16°C° 0 mm 1 m/s 677 mmHg 17%
    06:00 +18°C° 0 mm 1 m/s 678 mmHg 16%
    07:00 +19°C° 0 mm 1 m/s 678 mmHg 15%
    08:00 +21°C° 0 mm 1 m/s 678 mmHg 14%
    09:00 +23°C° 0 mm 1 m/s 679 mmHg 13%
    10:00 +25°C° 0 mm 1 m/s 679 mmHg 12%
    11:00 +26°C° 0 mm 2 m/s 679 mmHg 12%
    12:00 +27°C° 0 mm 3 m/s 678 mmHg 13%
    13:00 +28°C° 0 mm 4 m/s 678 mmHg 13%
    14:00 +28°C° 0 mm 5 m/s 677 mmHg 14%
    15:00 +28°C° 0 mm 5 m/s 677 mmHg 14%
    16:00 +28°C° 0 mm 5 m/s 677 mmHg 15%
    17:00 +26°C° 0 mm 4 m/s 677 mmHg 17%
    18:00 +24°C° 0 mm 3 m/s 676 mmHg 18%
    19:00 +23°C° 0 mm 2 m/s 676 mmHg 20%
    20:00 +21°C° 0 mm 2 m/s 676 mmHg 21%
    21:00 +20°C° 0 mm 2 m/s 676 mmHg 22%
    22:00 +20°C° 0 mm 1 m/s 676 mmHg 23%
    23:00 +20°C° 0 mm 1 m/s 676 mmHg 24%

    Depois de amanhã, 23 Outubro, Terça-feira

    Tempo Temperatura Precipitação Vento Pressão Humidade
    00:00 +19°C° 0 mm 1 m/s 675 mmHg 24%
    01:00 +19°C° 0 mm 1 m/s 675 mmHg 25%
    02:00 +18°C° 0 mm 1 m/s 675 mmHg 26%
    03:00 +18°C° 0 mm 1 m/s 675 mmHg 27%
    04:00 +16°C° 0 mm 1 m/s 675 mmHg 27%
    05:00 +18°C° 0 mm 1 m/s 675 mmHg 26%
    06:00 +19°C° 0 mm 1 m/s 676 mmHg 25%
    07:00 +19°C° 0 mm 1 m/s 676 mmHg 25%
    08:00 +21°C° 0 mm 1 m/s 677 mmHg 22%
    09:00 +23°C° 0 mm 1 m/s 677 mmHg 20%
    10:00 +25°C° 0 mm 1 m/s 677 mmHg 18%
    11:00 +26°C° 0 mm 2 m/s 677 mmHg 17%
    12:00 +27°C° 0 mm 3 m/s 677 mmHg 15%
    13:00 +28°C° 0 mm 4 m/s 676 mmHg 14%
    14:00 +28°C° 0 mm 4 m/s 676 mmHg 14%
    15:00 +28°C° 0 mm 4 m/s 676 mmHg 14%
    16:00 +28°C° 0 mm 5 m/s 676 mmHg 15%
    17:00 +26°C° 0 mm 4 m/s 676 mmHg 17%
    18:00 +24°C° 0 mm 3 m/s 675 mmHg 19%
    19:00 +21°C° 0 mm 2 m/s 675 mmHg 21%
    20:00 +21°C° 0 mm 2 m/s 675 mmHg 22%
    21:00 +21°C° 0 mm 1 m/s 675 mmHg 23%
    22:00 +20°C° 0 mm 1 m/s 675 mmHg 24%
    23:00 +20°C° 0 mm 1 m/s 675 mmHg 25%

    24 Outubro, Quarta-feira

    Tempo Temperatura Precipitação Vento Pressão Humidade
    00:00 +19°C° 0 mm 1 m/s 675 mmHg 26%
    01:00 +19°C° 0 mm 1 m/s 675 mmHg 26%
    02:00 +18°C° 0 mm 1 m/s 674 mmHg 27%
    03:00 +18°C° 0 mm 1 m/s 674 mmHg 28%
    04:00 +16°C° 0 mm 1 m/s 674 mmHg 29%
    05:00 +18°C° 0 mm 1 m/s 674 mmHg 28%
    06:00 +19°C° 0 mm 1 m/s 675 mmHg 26%
    07:00 +20°C° 0 mm 1 m/s 676 mmHg 25%
    08:00 +22°C° 0 mm 1 m/s 676 mmHg 22%
    09:00 +24°C° 0 mm 1 m/s 677 mmHg 20%
    10:00 +26°C° 0 mm 2 m/s 677 mmHg 17%
    11:00 +27°C° 0 mm 2 m/s 677 mmHg 16%
    12:00 +28°C° 0 mm 3 m/s 676 mmHg 15%
    13:00 +29°C° 0 mm 4 m/s 676 mmHg 14%
    14:00 +28°C° 0 mm 4 m/s 676 mmHg 14%
    15:00 +28°C° 0 mm 5 m/s 675 mmHg 15%
    16:00 +28°C° 0 mm 5 m/s 675 mmHg 15%
    17:00 +26°C° 0 mm 4 m/s 675 mmHg 17%
    18:00 +24°C° 0 mm 3 m/s 675 mmHg 19%
    19:00 +23°C° 0 mm 2 m/s 675 mmHg 21%
    20:00 +22°C° 0 mm 1 m/s 675 mmHg 22%
    21:00 +21°C° 0 mm 1 m/s 676 mmHg 23%
    22:00 +21°C° 0 mm 1 m/s 676 mmHg 24%
    23:00 +20°C° 0 mm 1 m/s 675 mmHg 25%

    25 Outubro, Quinta-feira

    Tempo Temperatura Precipitação Vento Pressão Humidade
    00:00 +19°C° 0 mm 1 m/s 675 mmHg 26%
    01:00 +19°C° 0 mm 1 m/s 675 mmHg 27%
    02:00 +18°C° 0 mm 1 m/s 675 mmHg 28%
    03:00 +18°C° 0 mm 1 m/s 674 mmHg 29%
    04:00 +16°C° 0 mm 1 m/s 674 mmHg 30%
    05:00 +18°C° 0 mm 1 m/s 675 mmHg 29%
    06:00 +19°C° 0 mm 1 m/s 676 mmHg 27%
    07:00 +20°C° 0 mm 1 m/s 676 mmHg 26%
    08:00 +22°C° 0 mm 1 m/s 677 mmHg 23%
    09:00 +24°C° 0 mm 1 m/s 678 mmHg 20%
    10:00 +26°C° 0 mm 1 m/s 678 mmHg 17%
    11:00 +27°C° 0 mm 2 m/s 678 mmHg 16%
    12:00 +28°C° 0 mm 3 m/s 677 mmHg 15%
    13:00 +29°C° 0 mm 3 m/s 677 mmHg 15%
    14:00 +29°C° 0 mm 4 m/s 677 mmHg 15%
    15:00 +29°C° 0 mm 4 m/s 677 mmHg 15%
    16:00 +29°C° 0 mm 4 m/s 677 mmHg 15%
    17:00 +27°C° 0 mm 3 m/s 677 mmHg 17%
    18:00 +25°C° 0 mm 2 m/s 677 mmHg 19%
    19:00 +23°C° 0 mm 2 m/s 677 mmHg 21%
    20:00 +23°C° 0 mm 1 m/s 677 mmHg 22%
    21:00 +22°C° 0 mm 1 m/s 677 mmHg 24%
    22:00 +21°C° 0 mm 1 m/s 677 mmHg 25%
    23:00 +21°C° 0 mm 1 m/s 677 mmHg 25%

    26 Outubro, Sexta-feira

    Tempo Temperatura Precipitação Vento Pressão Humidade
    00:00 +20°C° 0 mm 1 m/s 677 mmHg 26%
    01:00 +20°C° 0 mm 1 m/s 677 mmHg 26%
    02:00 +20°C° 0 mm 1 m/s 677 mmHg 27%
    03:00 +19°C° 0 mm 1 m/s 677 mmHg 28%
    04:00 +19°C° 0 mm 1 m/s 677 mmHg 28%
    05:00 +19°C° 0 mm 1 m/s 677 mmHg 27%
    06:00 +20°C° 0 mm 1 m/s 678 mmHg 26%
    07:00 +21°C° 0 mm 1 m/s 679 mmHg 25%
    08:00 +23°C° 0 mm 2 m/s 679 mmHg 23%
    09:00 +25°C° 0 mm 2 m/s 680 mmHg 21%
    10:00 +27°C° 0 mm 2 m/s 681 mmHg 19%
    11:00 +28°C° 0 mm 2 m/s 680 mmHg 18%
    12:00 +29°C° 0 mm 3 m/s 680 mmHg 17%
    13:00 +30°C° 0 mm 3 m/s 679 mmHg 16%
    14:00 +30°C° 0 mm 3 m/s 679 mmHg 15%
    15:00 +30°C° 0 mm 3 m/s 679 mmHg 15%
    16:00 +30°C° 0 mm 3 m/s 678 mmHg 15%
    17:00 +28°C° 0 mm 3 m/s 678 mmHg 17%
    18:00 +26°C° 0 mm 2 m/s 678 mmHg 19%
    19:00 +24°C° 0 mm 2 m/s 678 mmHg 21%
    20:00 +24°C° 0 mm 1 m/s 678 mmHg 22%
    21:00 +23°C° 0 mm 1 m/s 678 mmHg 23%
    22:00 +22°C° 0 mm 1 m/s 678 mmHg 24%
    23:00 +22°C° 0 mm 1 m/s 678 mmHg 26%
    Mostrar mais